Tracking 35030 objects as of 11-Aug-2026
HD Live streaming from Space Station
objects crossing your sky now

ONEWEB-0699

Track ONEWEB-0699 now!
10-day predictions
ONEWEB-0699 is classified as:


NORAD ID: 61605
Int'l Code: 2024-188M
Launch date: October 20, 2024
Source: United States (US)
Launch site: AIR FORCE WESTERN TEST RANGE (AFWTR)
Your satellite tracking list
Your tracking list is empty




NASA's NSSDC Master Catalog

Two Line Element Set (TLE):
1 61605U 24188M   26222.88722524  .00000180  00000-0  47875-3 0  9996
2 61605  87.8844  25.3647 0002379  81.9443 278.1954 13.10376072 90472
Source of the keplerian elements: AFSPC